Time,TemperatureF,DewpointF,PressureIn,WindDirection,WindDirectionDegrees,WindSpeedMPH,WindSpeedGustMPH,Humidity,HourlyPrecipIn,Conditions,Clouds,dailyrainin,SoftwareType,DateUTC
2013-01-03 00:01:00,35.1,31.9,30.29,South,172,0.0,2.0,88,0.00,,,0.00,WeatherCatV1.02B3,2013-01-03 06:01:00,
2013-01-03 00:06:00,35.1,31.9,30.30,South,172,1.0,5.0,88,0.00,,,0.00,WeatherCatV1.02B3,2013-01-03 06:06:00,
2013-01-03 00:11:00,35.0,31.8,30.31,South,172,0.0,0.0,88,0.00,,,0.00,WeatherCatV1.02B3,2013-01-03 06:11:00,
2013-01-03 00:16:00,34.9,31.4,30.30,SSE,166,0.0,5.0,87,0.00,,,0.00,WeatherCatV1.02B3,2013-01-03 06:16:00,
2013-01-03 00:21:00,34.9,31.4,30.30,SSE,166,0.0,5.0,87,0.00,,,0.00,WeatherCatV1.02B3,2013-01-03 06:21:00,
2013-01-03 00:26:00,34.9,31.7,30.30,SSE,166,0.0,4.0,88,0.00,,,0.00,WeatherCatV1.02B3,2013-01-03 06:26:00,
2013-01-03 00:31:00,34.9,31.4,30.31,SSE,166,0.0,0.0,87,0.00,,,0.00,WeatherCatV1.02B3,2013-01-03 06:31:00,
2013-01-03 00:36:00,34.9,31.4,30.31,SSE,166,0.0,1.0,87,0.00,,,0.00,WeatherCatV1.02B3,2013-01-03 06:36:00,
2013-01-03 00:41:00,34.8,31.3,30.31,SSE,167,1.0,1.0,87,0.00,,,0.00,WeatherCatV1.02B3,2013-01-03 06:41:00,
2013-01-03 00:46:00,34.8,30.8,30.30,South,169,0.0,2.0,85,0.00,,,0.00,WeatherCatV1.02B3,2013-01-03 06:46:00,
2013-01-03 00:51:00,34.8,30.8,30.31,South,169,0.0,2.0,85,0.00,,,0.00,WeatherCatV1.02B3,2013-01-03 06:51:00,
2013-01-03 00:56:00,34.8,30.8,30.32,South,169,1.0,4.0,85,0.00,,,0.00,WeatherCatV1.02B3,2013-01-03 06:56:00,
2013-01-03 01:01:00,34.8,30.5,30.32,South,175,0.0,7.0,84,0.00,,,0.00,WeatherCatV1.02B3,2013-01-03 07:01:00,
2013-01-03 01:06:00,34.8,30.5,30.32,South,177,0.0,2.0,84,0.00,,,0.00,WeatherCatV1.02B3,2013-01-03 07:06:00,
2013-01-03 01:11:00,34.8,30.5,30.32,South,177,0.0,2.0,84,0.00,,,0.00,WeatherCatV1.02B3,2013-01-03 07:11:00,
2013-01-03 01:16:00,34.8,30.5,30.32,South,173,4.0,5.0,84,0.00,,,0.00,WeatherCatV1.02B3,2013-01-03 07:16:00,
2013-01-03 01:21:00,34.9,30.9,30.32,South,171,2.0,5.0,85,0.00,,,0.00,WeatherCatV1.02B3,2013-01-03 07:21:00,
2013-01-03 01:26:00,34.9,30.9,30.32,South,171,0.0,2.0,85,0.00,,,0.00,WeatherCatV1.02B3,2013-01-03 07:26:00,
2013-01-03 01:31:00,34.8,30.8,30.32,South,170,1.0,5.0,85,0.00,,,0.00,WeatherCatV1.02B3,2013-01-03 07:31:00,
2013-01-03 01:36:00,34.8,30.8,30.33,SSE,160,0.0,1.0,85,0.00,,,0.00,WeatherCatV1.02B3,2013-01-03 07:36:00,
2013-01-03 01:41:00,34.7,30.7,30.33,SSE,161,0.0,2.0,85,0.00,,,0.00,WeatherCatV1.02B3,2013-01-03 07:41:00,
2013-01-03 01:46:00,34.8,30.8,30.33,SE,134,0.0,2.0,85,0.00,,,0.00,WeatherCatV1.02B3,2013-01-03 07:46:00,
2013-01-03 01:51:00,34.7,30.4,30.33,SSE,167,0.0,4.0,84,0.00,,,0.00,WeatherCatV1.02B3,2013-01-03 07:51:00,
2013-01-03 01:56:00,34.7,30.4,30.32,SSE,168,2.0,7.0,84,0.00,,,0.00,WeatherCatV1.02B3,2013-01-03 07:56:00,
2013-01-03 02:01:00,34.7,30.4,30.33,SSE,166,0.0,5.0,84,0.00,,,0.00,WeatherCatV1.02B3,2013-01-03 08:01:00,
2013-01-03 02:06:00,34.7,30.4,30.34,ESE,103,0.0,1.0,84,0.00,,,0.00,WeatherCatV1.02B3,2013-01-03 08:06:00,
2013-01-03 02:11:00,34.7,30.4,30.34,South,186,7.0,7.0,84,0.00,,,0.00,WeatherCatV1.02B3,2013-01-03 08:11:00,
2013-01-03 02:16:00,34.7,30.1,30.32,South,178,0.0,6.0,83,0.00,,,0.00,WeatherCatV1.02B3,2013-01-03 08:16:00,
2013-01-03 02:21:00,34.6,30.3,30.33,SE,142,7.0,7.0,84,0.00,,,0.00,WeatherCatV1.02B3,2013-01-03 08:21:00,
2013-01-03 02:26:00,34.5,30.2,30.33,South,172,0.0,4.0,84,0.00,,,0.00,WeatherCatV1.02B3,2013-01-03 08:26:00,
2013-01-03 02:31:00,34.5,30.2,30.33,South,188,0.0,1.0,84,0.00,,,0.00,WeatherCatV1.02B3,2013-01-03 08:31:00,
2013-01-03 02:36:00,34.5,30.2,30.33,SSE,156,1.0,5.0,84,0.00,,,0.00,WeatherCatV1.02B3,2013-01-03 08:36:00,
2013-01-03 02:41:00,34.4,29.8,30.33,SSE,168,4.0,6.0,83,0.00,,,0.00,WeatherCatV1.02B3,2013-01-03 08:41:00,
2013-01-03 02:46:00,34.4,29.8,30.34,SW,216,0.0,6.0,83,0.00,,,0.00,WeatherCatV1.02B3,2013-01-03 08:46:00,
2013-01-03 02:51:00,34.5,29.9,30.33,SSE,164,2.0,4.0,83,0.00,,,0.00,WeatherCatV1.02B3,2013-01-03 08:51:00,
2013-01-03 02:56:00,34.4,29.5,30.33,SE,144,7.0,9.0,82,0.00,,,0.00,WeatherCatV1.02B3,2013-01-03 08:56:00,
2013-01-03 03:01:00,34.4,29.2,30.33,South,180,3.0,5.0,81,0.00,,,0.00,WeatherCatV1.02B3,2013-01-03 09:01:00,
2013-01-03 03:06:00,34.4,29.2,30.33,South,173,4.0,5.0,81,0.00,,,0.00,WeatherCatV1.02B3,2013-01-03 09:06:00,
2013-01-03 03:11:00,34.4,29.2,30.33,SSE,164,0.0,5.0,81,0.00,,,0.00,WeatherCatV1.02B3,2013-01-03 09:11:00,
2013-01-03 03:16:00,34.4,28.9,30.33,SSE,161,2.0,4.0,80,0.00,,,0.00,WeatherCatV1.02B3,2013-01-03 09:16:00,
2013-01-03 03:21:00,34.3,28.8,30.33,SSE,165,2.0,7.0,80,0.00,,,0.00,WeatherCatV1.02B3,2013-01-03 09:21:00,
2013-01-03 03:26:00,34.4,28.9,30.33,South,190,0.0,8.0,80,0.00,,,0.00,WeatherCatV1.02B3,2013-01-03 09:26:00,
2013-01-03 03:31:00,34.4,28.9,30.33,South,186,1.0,7.0,80,0.00,,,0.00,WeatherCatV1.02B3,2013-01-03 09:31:00,
2013-01-03 03:36:00,34.4,29.2,30.33,South,182,0.0,2.0,81,0.00,,,0.00,WeatherCatV1.02B3,2013-01-03 09:36:00,
2013-01-03 03:41:00,34.3,28.8,30.33,South,173,1.0,5.0,80,0.00,,,0.00,WeatherCatV1.02B3,2013-01-03 09:41:00,
2013-01-03 03:46:00,34.3,28.8,30.34,South,180,2.0,3.0,80,0.00,,,0.00,WeatherCatV1.02B3,2013-01-03 09:46:00,
2013-01-03 03:51:00,34.3,29.1,30.34,South,169,0.0,4.0,81,0.00,,,0.00,WeatherCatV1.02B3,2013-01-03 09:51:00,
2013-01-03 03:56:00,34.3,29.1,30.34,SSE,157,0.0,1.0,81,0.00,,,0.00,WeatherCatV1.02B3,2013-01-03 09:56:00,
2013-01-03 04:01:00,34.3,29.1,30.34,SSE,148,1.0,5.0,81,0.00,,,0.00,WeatherCatV1.02B3,2013-01-03 10:01:00,
2013-01-03 04:06:00,34.3,28.8,30.34,SSE,157,0.0,8.0,80,0.00,,,0.00,WeatherCatV1.02B3,2013-01-03 10:06:00,
2013-01-03 04:11:00,34.2,28.4,30.33,SW,219,2.0,4.0,79,0.00,,,0.00,WeatherCatV1.02B3,2013-01-03 10:11:00,
2013-01-03 04:16:00,34.2,28.4,30.33,SSE,165,0.0,6.0,79,0.00,,,0.00,WeatherCatV1.02B3,2013-01-03 10:16:00,
2013-01-03 04:21:00,34.2,28.1,30.33,SSE,150,4.0,5.0,78,0.00,,,0.00,WeatherCatV1.02B3,2013-01-03 10:21:00,
2013-01-03 04:26:00,34.1,27.7,30.33,SSE,165,0.0,1.0,77,0.00,,,0.00,WeatherCatV1.02B3,2013-01-03 10:26:00,
2013-01-03 04:31:00,34.2,27.8,30.34,South,187,2.0,5.0,77,0.00,,,0.00,WeatherCatV1.02B3,2013-01-03 10:31:00,
2013-01-03 04:36:00,34.1,27.0,30.33,South,173,4.0,9.0,75,0.00,,,0.00,WeatherCatV1.02B3,2013-01-03 10:36:00,
2013-01-03 04:41:00,34.1,26.7,30.34,SSW,194,2.0,7.0,74,0.00,,,0.00,WeatherCatV1.02B3,2013-01-03 10:41:00,
2013-01-03 04:46:00,34.1,26.4,30.34,SSE,147,2.0,6.0,73,0.00,,,0.00,WeatherCatV1.02B3,2013-01-03 10:46:00,
2013-01-03 04:51:00,34.1,26.4,30.34,South,182,0.0,5.0,73,0.00,,,0.00,WeatherCatV1.02B3,2013-01-03 10:51:00,
2013-01-03 04:56:00,34.1,26.4,30.34,South,190,0.0,8.0,73,0.00,,,0.00,WeatherCatV1.02B3,2013-01-03 10:56:00,
2013-01-03 05:01:00,34.1,26.4,30.34,South,179,4.0,7.0,73,0.00,,,0.00,WeatherCatV1.02B3,2013-01-03 11:01:00,
2013-01-03 05:06:00,34.0,26.6,30.34,ESE,111,6.0,7.0,74,0.00,,,0.00,WeatherCatV1.02B3,2013-01-03 11:06:00,
2013-01-03 05:11:00,34.0,26.9,30.34,South,182,1.0,3.0,75,0.00,,,0.00,WeatherCatV1.02B3,2013-01-03 11:11:00,
2013-01-03 05:16:00,33.9,27.1,30.34,SSE,151,4.0,5.0,76,0.00,,,0.00,WeatherCatV1.02B3,2013-01-03 11:16:00,
2013-01-03 05:21:00,33.9,27.1,30.34,SSE,163,0.0,4.0,76,0.00,,,0.00,WeatherCatV1.02B3,2013-01-03 11:21:00,
2013-01-03 05:26:00,33.8,27.1,30.34,SSE,162,1.0,5.0,76,0.00,,,0.00,WeatherCatV1.02B3,2013-01-03 11:26:00,
2013-01-03 05:31:00,33.8,27.4,30.34,South,171,0.0,4.0,77,0.00,,,0.00,WeatherCatV1.02B3,2013-01-03 11:31:00,
2013-01-03 05:36:00,33.8,27.7,30.34,SSW,197,1.0,5.0,78,0.00,,,0.00,WeatherCatV1.02B3,2013-01-03 11:36:00,
2013-01-03 05:41:00,33.7,27.6,30.34,SE,137,0.0,1.0,78,0.00,,,0.00,WeatherCatV1.02B3,2013-01-03 11:41:00,
2013-01-03 05:46:00,33.7,27.9,30.35,SE,140,4.0,5.0,79,0.00,,,0.00,WeatherCatV1.02B3,2013-01-03 11:46:00,
2013-01-03 05:51:00,33.7,27.6,30.34,South,179,0.0,0.0,78,0.00,,,0.00,WeatherCatV1.02B3,2013-01-03 11:51:00,
2013-01-03 05:56:00,33.7,27.9,30.35,SE,126,0.0,5.0,79,0.00,,,0.00,WeatherCatV1.02B3,2013-01-03 11:56:00,
2013-01-03 06:01:00,33.7,27.9,30.35,South,174,0.0,0.0,79,0.00,,,0.00,WeatherCatV1.02B3,2013-01-03 12:01:00,
2013-01-03 06:06:00,33.7,27.9,30.35,SSE,167,1.0,4.0,79,0.00,,,0.00,WeatherCatV1.02B3,2013-01-03 12:06:00,
2013-01-03 06:11:00,33.6,27.8,30.36,South,169,0.0,5.0,79,0.00,,,0.00,WeatherCatV1.02B3,2013-01-03 12:11:00,
2013-01-03 06:16:00,33.6,28.1,30.36,SE,130,1.0,5.0,80,0.00,,,0.00,WeatherCatV1.02B3,2013-01-03 12:16:00,
2013-01-03 06:21:00,33.6,28.1,30.36,SSE,149,0.0,4.0,80,0.00,,,0.00,WeatherCatV1.02B3,2013-01-03 12:21:00,
2013-01-03 06:26:00,33.5,28.0,30.36,South,180,0.0,3.0,80,0.00,,,0.00,WeatherCatV1.02B3,2013-01-03 12:26:00,
2013-01-03 06:31:00,33.5,28.0,30.36,SSE,167,1.0,3.0,80,0.00,,,0.00,WeatherCatV1.02B3,2013-01-03 12:31:00,
2013-01-03 06:36:00,33.5,27.7,30.36,SSE,147,0.0,4.0,79,0.00,,,0.00,WeatherCatV1.02B3,2013-01-03 12:36:00,
2013-01-03 06:41:00,33.5,27.7,30.36,SSE,155,5.0,6.0,79,0.00,,,0.00,WeatherCatV1.02B3,2013-01-03 12:41:00,
2013-01-03 06:46:00,33.4,27.6,30.36,SE,144,0.0,6.0,79,0.00,,,0.00,WeatherCatV1.02B3,2013-01-03 12:46:00,
2013-01-03 06:51:00,33.3,27.8,30.37,South,174,1.0,2.0,80,0.00,,,0.00,WeatherCatV1.02B3,2013-01-03 12:51:00,
2013-01-03 06:56:00,33.1,27.3,30.37,SSW,196,0.0,6.0,79,0.00,,,0.00,WeatherCatV1.02B3,2013-01-03 12:56:00,
2013-01-03 07:01:00,33.1,27.6,30.37,SSE,161,4.0,5.0,80,0.00,,,0.00,WeatherCatV1.02B3,2013-01-03 13:01:00,
2013-01-03 07:06:00,33.0,27.2,30.37,South,174,2.0,5.0,79,0.00,,,0.00,WeatherCatV1.02B3,2013-01-03 13:06:00,
2013-01-03 07:11:00,33.1,27.6,30.37,SSE,162,1.0,6.0,80,0.00,,,0.00,WeatherCatV1.02B3,2013-01-03 13:11:00,
2013-01-03 07:16:00,33.1,27.3,30.37,South,181,1.0,6.0,79,0.00,,,0.00,WeatherCatV1.02B3,2013-01-03 13:16:00,
2013-01-03 07:21:00,33.1,27.3,30.37,SSE,151,0.0,7.0,79,0.00,,,0.00,WeatherCatV1.02B3,2013-01-03 13:21:00,
2013-01-03 07:26:00,33.2,27.1,30.38,SE,138,0.0,4.0,78,0.00,,,0.00,WeatherCatV1.02B3,2013-01-03 13:26:00,
2013-01-03 07:31:00,33.3,27.2,30.38,SE,131,1.0,8.0,78,0.00,,,0.00,WeatherCatV1.02B3,2013-01-03 13:31:00,
2013-01-03 07:36:00,33.4,27.3,30.38,South,175,1.0,2.0,78,0.00,,,0.00,WeatherCatV1.02B3,2013-01-03 13:36:00,
2013-01-03 07:41:00,33.4,27.3,30.38,SSE,157,0.0,4.0,78,0.00,,,0.00,WeatherCatV1.02B3,2013-01-03 13:41:00,
2013-01-03 07:46:00,33.4,27.0,30.38,South,169,2.0,4.0,77,0.00,,,0.00,WeatherCatV1.02B3,2013-01-03 13:46:00,
2013-01-03 07:51:00,33.5,27.1,30.38,South,170,0.0,1.0,77,0.00,,,0.00,WeatherCatV1.02B3,2013-01-03 13:51:00,
2013-01-03 07:56:00,33.7,27.0,30.38,SSE,157,0.0,7.0,76,0.00,,,0.00,WeatherCatV1.02B3,2013-01-03 13:56:00,
2013-01-03 08:01:00,33.8,28.6,30.38,SSE,162,0.0,1.0,81,0.00,,,0.00,WeatherCatV1.02B3,2013-01-03 14:01:00,
2013-01-03 08:06:00,33.9,27.1,30.38,SSE,150,0.0,9.0,76,0.00,,,0.00,WeatherCatV1.02B3,2013-01-03 14:06:00,
2013-01-03 08:11:00,34.0,27.2,30.39,SSE,165,0.0,5.0,76,0.00,,,0.00,WeatherCatV1.02B3,2013-01-03 14:11:00,
2013-01-03 08:16:00,34.1,27.0,30.39,South,178,4.0,6.0,75,0.00,,,0.00,WeatherCatV1.02B3,2013-01-03 14:16:00,
2013-01-03 08:21:00,34.1,27.0,30.39,South,191,1.0,5.0,75,0.00,,,0.00,WeatherCatV1.02B3,2013-01-03 14:21:00,
2013-01-03 08:26:00,34.1,27.0,30.39,SSW,200,0.0,5.0,75,0.00,,,0.00,WeatherCatV1.02B3,2013-01-03 14:26:00,
2013-01-03 08:31:00,34.2,27.1,30.39,SSE,157,1.0,2.0,75,0.00,,,0.00,WeatherCatV1.02B3,2013-01-03 14:31:00,
2013-01-03 08:36:00,34.2,26.8,30.39,SSE,162,1.0,6.0,74,0.00,,,0.00,WeatherCatV1.02B3,2013-01-03 14:36:00,
2013-01-03 08:41:00,34.3,26.6,30.40,SE,132,2.0,9.0,73,0.00,,,0.00,WeatherCatV1.02B3,2013-01-03 14:41:00,
2013-01-03 08:46:00,34.4,26.7,30.40,South,179,0.0,6.0,73,0.00,,,0.00,WeatherCatV1.02B3,2013-01-03 14:46:00,
2013-01-03 08:51:00,34.5,26.8,30.40,SSE,166,4.0,5.0,73,0.00,,,0.00,WeatherCatV1.02B3,2013-01-03 14:51:00,
2013-01-03 08:56:00,34.8,27.4,30.41,SSE,163,0.0,4.0,74,0.00,,,0.00,WeatherCatV1.02B3,2013-01-03 14:56:00,
2013-01-03 09:01:00,35.1,27.0,30.41,South,183,1.0,7.0,72,0.00,,,0.00,WeatherCatV1.02B3,2013-01-03 15:01:00,
2013-01-03 09:06:00,35.3,26.5,30.41,SSE,165,5.0,10.0,70,0.00,,,0.00,WeatherCatV1.02B3,2013-01-03 15:06:00,
2013-01-03 09:11:00,35.6,27.1,30.41,SSE,164,4.0,9.0,71,0.00,,,0.00,WeatherCatV1.02B3,2013-01-03 15:11:00,
2013-01-03 09:16:00,35.8,27.7,30.42,South,170,0.0,6.0,72,0.00,,,0.00,WeatherCatV1.02B3,2013-01-03 15:16:00,
2013-01-03 09:21:00,36.0,27.9,30.42,South,182,1.0,7.0,72,0.00,,,0.00,WeatherCatV1.02B3,2013-01-03 15:21:00,
2013-01-03 09:26:00,36.2,28.1,30.42,SSW,199,3.0,6.0,72,0.00,,,0.00,WeatherCatV1.02B3,2013-01-03 15:26:00,
2013-01-03 09:31:00,36.4,27.9,30.42,NNE,30,2.0,2.0,71,0.00,,,0.00,WeatherCatV1.02B3,2013-01-03 15:31:00,
2013-01-03 09:36:00,36.6,28.1,30.43,South,180,1.0,5.0,71,0.00,,,0.00,WeatherCatV1.02B3,2013-01-03 15:36:00,
2013-01-03 09:41:00,36.7,28.2,30.42,WSW,237,1.0,6.0,71,0.00,,,0.00,WeatherCatV1.02B3,2013-01-03 15:41:00,
2013-01-03 09:46:00,36.9,28.4,30.43,South,188,3.0,3.0,71,0.00,,,0.00,WeatherCatV1.02B3,2013-01-03 15:46:00,
2013-01-03 09:51:00,37.0,29.2,30.43,South,175,4.0,8.0,73,0.00,,,0.00,WeatherCatV1.02B3,2013-01-03 15:51:00,
2013-01-03 09:56:00,37.2,29.0,30.43,ESE,118,4.0,5.0,72,0.00,,,0.00,WeatherCatV1.02B3,2013-01-03 15:56:00,
2013-01-03 10:01:00,37.0,28.5,30.43,South,173,5.0,6.0,71,0.00,,,0.00,WeatherCatV1.02B3,2013-01-03 16:01:00,
2013-01-03 10:06:00,36.7,28.5,30.43,South,190,0.0,7.0,72,0.00,,,0.00,WeatherCatV1.02B3,2013-01-03 16:06:00,
2013-01-03 10:11:00,36.6,28.8,30.43,SSW,194,3.0,6.0,73,0.00,,,0.00,WeatherCatV1.02B3,2013-01-03 16:11:00,
2013-01-03 10:16:00,36.6,29.4,30.43,SSW,192,0.0,2.0,75,0.00,,,0.00,WeatherCatV1.02B3,2013-01-03 16:16:00,
2013-01-03 10:21:00,36.7,29.2,30.43,SSE,164,0.0,8.0,74,0.00,,,0.00,WeatherCatV1.02B3,2013-01-03 16:21:00,
2013-01-03 10:26:00,36.7,29.2,30.43,SSE,166,4.0,5.0,74,0.00,,,0.00,WeatherCatV1.02B3,2013-01-03 16:26:00,
2013-01-03 10:31:00,37.2,29.4,30.43,SE,141,0.0,7.0,73,0.00,,,0.00,WeatherCatV1.02B3,2013-01-03 16:31:00,
2013-01-03 10:36:00,37.7,29.8,30.43,South,178,8.0,8.0,73,0.00,,,0.00,WeatherCatV1.02B3,2013-01-03 16:36:00,
2013-01-03 10:41:00,38.2,30.3,30.43,South,175,0.0,2.0,73,0.00,,,0.00,WeatherCatV1.02B3,2013-01-03 16:41:00,
2013-01-03 10:46:00,38.6,30.0,30.43,South,184,1.0,8.0,71,0.00,,,0.00,WeatherCatV1.02B3,2013-01-03 16:46:00,
2013-01-03 10:51:00,38.7,30.1,30.43,SE,126,4.0,7.0,71,0.00,,,0.00,WeatherCatV1.02B3,2013-01-03 16:51:00,
2013-01-03 10:56:00,38.8,29.9,30.43,South,178,4.0,5.0,70,0.00,,,0.00,WeatherCatV1.02B3,2013-01-03 16:56:00,
2013-01-03 11:01:00,38.9,30.0,30.43,SSW,201,7.0,9.0,70,0.00,,,0.00,WeatherCatV1.02B3,2013-01-03 17:01:00,
2013-01-03 11:06:00,39.1,30.2,30.42,SSW,198,0.0,6.0,70,0.00,,,0.00,WeatherCatV1.02B3,2013-01-03 17:06:00,
2013-01-03 11:11:00,39.5,30.9,30.42,South,175,4.0,8.0,71,0.00,,,0.00,WeatherCatV1.02B3,2013-01-03 17:11:00,
2013-01-03 11:16:00,40.0,30.7,30.42,SSE,155,5.0,7.0,69,0.00,,,0.00,WeatherCatV1.02B3,2013-01-03 17:16:00,
2013-01-03 11:21:00,40.1,30.4,30.42,SSE,165,1.0,6.0,68,0.00,,,0.00,WeatherCatV1.02B3,2013-01-03 17:21:00,
2013-01-03 11:26:00,40.6,30.9,30.42,South,175,0.0,4.0,68,0.00,,,0.00,WeatherCatV1.02B3,2013-01-03 17:26:00,
2013-01-03 11:31:00,40.7,30.2,30.41,SSE,163,4.0,5.0,66,0.00,,,0.00,WeatherCatV1.02B3,2013-01-03 17:31:00,
2013-01-03 11:36:00,40.7,29.9,30.41,ESE,112,2.0,5.0,65,0.00,,,0.00,WeatherCatV1.02B3,2013-01-03 17:36:00,
2013-01-03 11:41:00,40.0,29.9,30.40,South,173,2.0,6.0,67,0.00,,,0.00,WeatherCatV1.02B3,2013-01-03 17:41:00,
2013-01-03 11:46:00,39.5,28.7,30.40,East,92,1.0,9.0,65,0.00,,,0.00,WeatherCatV1.02B3,2013-01-03 17:46:00,
2013-01-03 11:51:00,39.5,29.1,30.40,South,171,6.0,6.0,66,0.00,,,0.00,WeatherCatV1.02B3,2013-01-03 17:51:00,
2013-01-03 11:56:00,40.3,29.9,30.40,SE,124,0.0,2.0,66,0.00,,,0.00,WeatherCatV1.02B3,2013-01-03 17:56:00,
2013-01-03 12:01:00,40.7,29.5,30.39,South,176,1.0,1.0,64,0.00,,,0.00,WeatherCatV1.02B3,2013-01-03 18:01:00,
2013-01-03 12:06:00,41.4,30.1,30.39,South,178,0.0,2.0,64,0.00,,,0.00,WeatherCatV1.02B3,2013-01-03 18:06:00,
2013-01-03 12:11:00,42.0,29.9,30.39,SSW,197,1.0,4.0,62,0.00,,,0.00,WeatherCatV1.02B3,2013-01-03 18:11:00,
2013-01-03 12:16:00,42.3,28.2,30.39,East,98,0.0,5.0,57,0.00,,,0.00,WeatherCatV1.02B3,2013-01-03 18:16:00,
2013-01-03 12:21:00,42.4,29.5,30.39,South,186,1.0,3.0,60,0.00,,,0.00,WeatherCatV1.02B3,2013-01-03 18:21:00,
2013-01-03 12:26:00,43.1,29.3,30.38,SE,144,0.0,7.0,58,0.00,,,0.00,WeatherCatV1.02B3,2013-01-03 18:26:00,
2013-01-03 12:31:00,42.9,29.6,30.38,South,169,0.0,4.0,59,0.00,,,0.00,WeatherCatV1.02B3,2013-01-03 18:31:00,
2013-01-03 12:36:00,42.9,28.7,30.38,SW,219,0.0,4.0,57,0.00,,,0.00,WeatherCatV1.02B3,2013-01-03 18:36:00,
2013-01-03 12:41:00,42.9,28.7,30.38,SSE,156,1.0,7.0,57,0.00,,,0.00,WeatherCatV1.02B3,2013-01-03 18:41:00,
2013-01-03 12:46:00,43.5,28.4,30.37,SSE,160,6.0,7.0,55,0.00,,,0.00,WeatherCatV1.02B3,2013-01-03 18:46:00,
2013-01-03 12:51:00,43.9,29.2,30.37,SSE,155,5.0,6.0,56,0.00,,,0.00,WeatherCatV1.02B3,2013-01-03 18:51:00,
2013-01-03 12:56:00,44.0,28.9,30.37,SSE,163,0.0,2.0,55,0.00,,,0.00,WeatherCatV1.02B3,2013-01-03 18:56:00,
2013-01-03 13:01:00,43.9,28.3,30.37,SE,134,2.0,4.0,54,0.00,,,0.00,WeatherCatV1.02B3,2013-01-03 19:01:00,
2013-01-03 13:06:00,44.3,29.2,30.37,SE,135,1.0,8.0,55,0.00,,,0.00,WeatherCatV1.02B3,2013-01-03 19:06:00,
2013-01-03 13:11:00,44.2,29.1,30.37,SSE,161,1.0,6.0,55,0.00,,,0.00,WeatherCatV1.02B3,2013-01-03 19:11:00,
2013-01-03 13:16:00,44.4,29.3,30.37,East,86,2.0,4.0,55,0.00,,,0.00,WeatherCatV1.02B3,2013-01-03 19:16:00,
2013-01-03 13:56:00,46.4,28.3,30.36,ENE,72,1.0,2.0,49,0.00,,,0.00,WeatherCatV1.02B3,2013-01-03 19:56:00,
2013-01-03 14:01:00,46.7,30.0,30.36,South,180,1.0,1.0,52,0.00,,,0.00,WeatherCatV1.02B3,2013-01-03 20:01:00,
2013-01-03 14:06:00,46.6,29.0,30.36,SSE,161,1.0,6.0,50,0.00,,,0.00,WeatherCatV1.02B3,2013-01-03 20:06:00,
2013-01-03 14:11:00,46.9,29.2,30.36,South,181,4.0,7.0,50,0.00,,,0.00,WeatherCatV1.02B3,2013-01-03 20:11:00,
2013-01-03 14:16:00,46.6,28.5,30.36,South,169,4.0,10.0,49,0.00,,,0.00,WeatherCatV1.02B3,2013-01-03 20:16:00,
2013-01-03 14:21:00,46.1,28.5,30.36,South,170,9.0,9.0,50,0.00,,,0.00,WeatherCatV1.02B3,2013-01-03 20:21:00,
2013-01-03 14:26:00,46.1,29.0,30.36,SW,236,0.0,6.0,51,0.00,,,0.00,WeatherCatV1.02B3,2013-01-03 20:26:00,
2013-01-03 14:31:00,46.2,29.1,30.36,SSW,202,1.0,4.0,51,0.00,,,0.00,WeatherCatV1.02B3,2013-01-03 20:31:00,
2013-01-03 14:36:00,46.4,28.8,30.36,SE,146,2.0,5.0,50,0.00,,,0.00,WeatherCatV1.02B3,2013-01-03 20:36:00,
2013-01-03 14:41:00,46.5,29.4,30.36,SSE,154,1.0,7.0,51,0.00,,,0.00,WeatherCatV1.02B3,2013-01-03 20:41:00,
2013-01-03 14:46:00,46.3,29.2,30.36,South,169,0.0,7.0,51,0.00,,,0.00,WeatherCatV1.02B3,2013-01-03 20:46:00,
2013-01-03 14:51:00,46.1,28.5,30.36,South,175,0.0,6.0,50,0.00,,,0.00,WeatherCatV1.02B3,2013-01-03 20:51:00,
2013-01-03 14:56:00,45.9,28.8,30.36,SSW,195,2.0,3.0,51,0.00,,,0.00,WeatherCatV1.02B3,2013-01-03 20:56:00,
2013-01-03 15:01:00,45.9,28.8,30.36,SSW,195,4.0,4.0,51,0.00,,,0.00,WeatherCatV1.02B3,2013-01-03 21:01:00,
2013-01-03 15:06:00,46.0,29.4,30.36,South,184,1.0,2.0,52,0.00,,,0.00,WeatherCatV1.02B3,2013-01-03 21:06:00,
2013-01-03 15:11:00,46.1,29.5,30.37,South,169,0.0,7.0,52,0.00,,,0.00,WeatherCatV1.02B3,2013-01-03 21:11:00,
2013-01-03 15:16:00,46.1,29.0,30.37,South,179,2.0,7.0,51,0.00,,,0.00,WeatherCatV1.02B3,2013-01-03 21:16:00,
2013-01-03 15:21:00,46.0,29.4,30.37,South,170,0.0,4.0,52,0.00,,,0.00,WeatherCatV1.02B3,2013-01-03 21:21:00,
2013-01-03 15:26:00,46.0,28.4,30.37,SE,138,0.0,2.0,50,0.00,,,0.00,WeatherCatV1.02B3,2013-01-03 21:26:00,
2013-01-03 15:31:00,45.7,28.1,30.37,SSE,155,0.0,1.0,50,0.00,,,0.00,WeatherCatV1.02B3,2013-01-03 21:31:00,
2013-01-03 15:36:00,45.7,29.1,30.37,SE,131,0.0,5.0,52,0.00,,,0.00,WeatherCatV1.02B3,2013-01-03 21:36:00,
2013-01-03 15:41:00,45.7,28.6,30.37,South,176,4.0,7.0,51,0.00,,,0.00,WeatherCatV1.02B3,2013-01-03 21:41:00,
2013-01-03 15:46:00,45.8,28.7,30.37,South,177,1.0,4.0,51,0.00,,,0.00,WeatherCatV1.02B3,2013-01-03 21:46:00,
2013-01-03 15:51:00,45.8,28.2,30.37,SE,126,0.0,1.0,50,0.00,,,0.00,WeatherCatV1.02B3,2013-01-03 21:51:00,
2013-01-03 15:56:00,45.7,28.6,30.37,ENE,71,1.0,2.0,51,0.00,,,0.00,WeatherCatV1.02B3,2013-01-03 21:56:00,
2013-01-03 16:01:00,45.6,29.0,30.37,SE,142,0.0,5.0,52,0.00,,,0.00,WeatherCatV1.02B3,2013-01-03 22:01:00,
2013-01-03 16:06:00,45.5,28.9,30.37,SE,142,0.0,1.0,52,0.00,,,0.00,WeatherCatV1.02B3,2013-01-03 22:06:00,
2013-01-03 16:11:00,45.5,29.4,30.38,SSE,167,1.0,2.0,53,0.00,,,0.00,WeatherCatV1.02B3,2013-01-03 22:11:00,
2013-01-03 16:16:00,45.3,29.2,30.38,SE,134,0.0,1.0,53,0.00,,,0.00,WeatherCatV1.02B3,2013-01-03 22:16:00,
2013-01-03 16:22:00,45.2,29.1,30.38,SSE,164,0.0,2.0,53,0.00,,,0.00,WeatherCatV1.02B3,2013-01-03 22:22:00,
2013-01-03 16:27:00,45.0,28.9,30.38,SE,140,0.0,1.0,53,0.00,,,0.00,WeatherCatV1.02B3,2013-01-03 22:27:00,
2013-01-03 16:32:00,44.9,28.8,30.38,East,88,0.0,2.0,53,0.00,,,0.00,WeatherCatV1.02B3,2013-01-03 22:32:00,
2013-01-03 16:37:00,44.7,29.1,30.38,East,88,0.0,1.0,54,0.00,,,0.00,WeatherCatV1.02B3,2013-01-03 22:37:00,
2013-01-03 16:42:00,44.6,29.4,30.38,East,88,0.0,1.0,55,0.00,,,0.00,WeatherCatV1.02B3,2013-01-03 22:42:00,
2013-01-03 16:47:00,44.3,29.6,30.38,South,169,0.0,0.0,56,0.00,,,0.00,WeatherCatV1.02B3,2013-01-03 22:47:00,
2013-01-03 16:52:00,44.1,29.4,30.38,ESE,111,0.0,1.0,56,0.00,,,0.00,WeatherCatV1.02B3,2013-01-03 22:52:00,
2013-01-03 16:57:00,44.0,29.8,30.38,SSE,161,2.0,2.0,57,0.00,,,0.00,WeatherCatV1.02B3,2013-01-03 22:57:00,
2013-01-03 17:02:00,43.7,29.5,30.39,SE,141,0.0,1.0,57,0.00,,,0.00,WeatherCatV1.02B3,2013-01-03 23:02:00,
2013-01-03 17:07:00,43.7,29.0,30.40,SE,132,0.0,0.0,56,0.00,,,0.00,WeatherCatV1.02B3,2013-01-03 23:07:00,
2013-01-03 17:12:00,43.6,29.4,30.40,SE,132,1.0,1.0,57,0.00,,,0.00,WeatherCatV1.02B3,2013-01-03 23:12:00,
2013-01-03 17:17:00,43.4,28.8,30.40,East,80,0.0,0.0,56,0.00,,,0.00,WeatherCatV1.02B3,2013-01-03 23:17:00,
2013-01-03 17:22:00,43.3,29.1,30.40,East,80,0.0,0.0,57,0.00,,,0.00,WeatherCatV1.02B3,2013-01-03 23:22:00,
2013-01-03 17:27:00,43.1,28.9,30.41,East,80,0.0,0.0,57,0.00,,,0.00,WeatherCatV1.02B3,2013-01-03 23:27:00,
2013-01-03 17:32:00,42.9,29.2,30.41,East,80,0.0,1.0,58,0.00,,,0.00,WeatherCatV1.02B3,2013-01-03 23:32:00,
2013-01-03 17:37:00,42.7,29.4,30.41,East,79,0.0,0.0,59,0.00,,,0.00,WeatherCatV1.02B3,2013-01-03 23:37:00,
2013-01-03 17:42:00,42.6,28.9,30.41,ENE,78,0.0,0.0,58,0.00,,,0.00,WeatherCatV1.02B3,2013-01-03 23:42:00,
2013-01-03 17:47:00,42.5,28.8,30.42,ENE,78,0.0,0.0,58,0.00,,,0.00,WeatherCatV1.02B3,2013-01-03 23:47:00,
2013-01-03 17:52:00,42.4,29.1,30.42,ESE,113,0.0,0.0,59,0.00,,,0.00,WeatherCatV1.02B3,2013-01-03 23:52:00,
2013-01-03 17:57:00,42.1,28.8,30.42,ESE,113,0.0,0.0,59,0.00,,,0.00,WeatherCatV1.02B3,2013-01-03 23:57:00,
2013-01-03 18:02:00,41.9,29.0,30.42,ESE,113,0.0,0.0,60,0.00,,,0.00,WeatherCatV1.02B3,2013-01-04 00:02:00,
2013-01-03 18:07:00,41.7,29.3,30.42,ESE,115,0.0,4.0,61,0.00,,,0.00,WeatherCatV1.02B3,2013-01-04 00:07:00,
2013-01-03 18:12:00,41.6,28.8,30.42,South,171,0.0,4.0,60,0.00,,,0.00,WeatherCatV1.02B3,2013-01-04 00:12:00,
2013-01-03 18:17:00,41.5,29.1,30.42,South,186,0.0,2.0,61,0.00,,,0.00,WeatherCatV1.02B3,2013-01-04 00:17:00,
2013-01-03 18:22:00,41.4,29.4,30.42,SSE,148,0.0,0.0,62,0.00,,,0.00,WeatherCatV1.02B3,2013-01-04 00:22:00,
2013-01-03 18:27:00,41.2,29.2,30.42,SE,137,0.0,5.0,62,0.00,,,0.00,WeatherCatV1.02B3,2013-01-04 00:27:00,
2013-01-03 18:32:00,41.0,29.0,30.42,SSE,161,0.0,5.0,62,0.00,,,0.00,WeatherCatV1.02B3,2013-01-04 00:32:00,
2013-01-03 18:37:00,41.0,29.0,30.42,South,172,0.0,6.0,62,0.00,,,0.00,WeatherCatV1.02B3,2013-01-04 00:37:00,
2013-01-03 18:42:00,40.9,29.3,30.42,South,179,0.0,1.0,63,0.00,,,0.00,WeatherCatV1.02B3,2013-01-04 00:42:00,
2013-01-03 18:47:00,40.9,29.3,30.43,South,182,2.0,2.0,63,0.00,,,0.00,WeatherCatV1.02B3,2013-01-04 00:47:00,
2013-01-03 18:52:00,40.8,29.2,30.43,South,177,2.0,6.0,63,0.00,,,0.00,WeatherCatV1.02B3,2013-01-04 00:52:00,
2013-01-03 18:57:00,40.7,29.1,30.43,SSE,163,0.0,6.0,63,0.00,,,0.00,WeatherCatV1.02B3,2013-01-04 00:57:00,
2013-01-03 19:02:00,40.6,29.4,30.43,SSE,163,0.0,1.0,64,0.00,,,0.00,WeatherCatV1.02B3,2013-01-04 01:02:00,
2013-01-03 19:07:00,40.4,29.6,30.43,South,174,4.0,4.0,65,0.00,,,0.00,WeatherCatV1.02B3,2013-01-04 01:07:00,
2013-01-03 19:12:00,40.2,29.4,30.42,SE,138,0.0,5.0,65,0.00,,,0.00,WeatherCatV1.02B3,2013-01-04 01:12:00,
2013-01-03 19:17:00,40.1,29.7,30.43,South,185,0.0,2.0,66,0.00,,,0.00,WeatherCatV1.02B3,2013-01-04 01:17:00,
2013-01-03 19:22:00,39.9,29.5,30.43,South,185,0.0,0.0,66,0.00,,,0.00,WeatherCatV1.02B3,2013-01-04 01:22:00,
2013-01-03 19:27:00,39.8,29.4,30.43,SSE,165,1.0,4.0,66,0.00,,,0.00,WeatherCatV1.02B3,2013-01-04 01:27:00,
2013-01-03 19:32:00,39.7,30.0,30.42,South,178,0.0,6.0,68,0.00,,,0.00,WeatherCatV1.02B3,2013-01-04 01:32:00,
2013-01-03 19:37:00,39.8,29.8,30.42,SSE,164,5.0,5.0,67,0.00,,,0.00,WeatherCatV1.02B3,2013-01-04 01:37:00,
2013-01-03 19:42:00,39.8,30.1,30.43,South,175,4.0,5.0,68,0.00,,,0.00,WeatherCatV1.02B3,2013-01-04 01:42:00,
2013-01-03 19:47:00,40.0,29.9,30.43,SSW,206,2.0,5.0,67,0.00,,,0.00,WeatherCatV1.02B3,2013-01-04 01:47:00,
2013-01-03 19:52:00,40.1,30.4,30.43,SSE,164,2.0,6.0,68,0.00,,,0.00,WeatherCatV1.02B3,2013-01-04 01:52:00,
2013-01-03 19:57:00,40.2,30.5,30.44,South,188,0.0,2.0,68,0.00,,,0.00,WeatherCatV1.02B3,2013-01-04 01:57:00,
2013-01-03 20:02:00,40.2,30.9,30.43,SSE,160,0.0,4.0,69,0.00,,,0.00,WeatherCatV1.02B3,2013-01-04 02:02:00,
2013-01-03 20:07:00,40.2,30.9,30.44,SSE,165,0.0,1.0,69,0.00,,,0.00,WeatherCatV1.02B3,2013-01-04 02:07:00,
2013-01-03 20:12:00,40.1,30.8,30.45,SSE,166,2.0,6.0,69,0.00,,,0.00,WeatherCatV1.02B3,2013-01-04 02:12:00,
2013-01-03 20:17:00,40.2,30.9,30.44,SSE,168,4.0,6.0,69,0.00,,,0.00,WeatherCatV1.02B3,2013-01-04 02:17:00,
2013-01-03 20:22:00,40.2,30.9,30.44,SE,138,2.0,2.0,69,0.00,,,0.00,WeatherCatV1.02B3,2013-01-04 02:22:00,
2013-01-03 20:27:00,40.2,31.2,30.44,West,274,2.0,2.0,70,0.00,,,0.00,WeatherCatV1.02B3,2013-01-04 02:27:00,
2013-01-03 20:32:00,40.1,31.1,30.45,SW,217,0.0,1.0,70,0.00,,,0.00,WeatherCatV1.02B3,2013-01-04 02:32:00,
2013-01-03 20:37:00,40.1,31.1,30.45,SW,217,0.0,2.0,70,0.00,,,0.00,WeatherCatV1.02B3,2013-01-04 02:37:00,
2013-01-03 20:42:00,40.0,31.0,30.44,South,183,0.0,8.0,70,0.00,,,0.00,WeatherCatV1.02B3,2013-01-04 02:42:00,
2013-01-03 20:47:00,39.9,31.3,30.45,SSE,163,0.0,4.0,71,0.00,,,0.00,WeatherCatV1.02B3,2013-01-04 02:47:00,
2013-01-03 20:52:00,39.9,31.6,30.45,South,180,3.0,6.0,72,0.00,,,0.00,WeatherCatV1.02B3,2013-01-04 02:52:00,
2013-01-03 20:57:00,39.9,31.3,30.45,SE,145,0.0,2.0,71,0.00,,,0.00,WeatherCatV1.02B3,2013-01-04 02:57:00,
2013-01-03 21:02:00,39.8,31.5,30.44,SE,146,0.0,1.0,72,0.00,,,0.00,WeatherCatV1.02B3,2013-01-04 03:02:00,
2013-01-03 21:07:00,39.8,31.5,30.45,SE,144,2.0,4.0,72,0.00,,,0.00,WeatherCatV1.02B3,2013-01-04 03:07:00,
2013-01-03 21:12:00,39.7,31.4,30.45,SSE,158,0.0,4.0,72,0.00,,,0.00,WeatherCatV1.02B3,2013-01-04 03:12:00,
2013-01-03 21:17:00,39.7,31.4,30.44,South,175,0.0,4.0,72,0.00,,,0.00,WeatherCatV1.02B3,2013-01-04 03:17:00,
2013-01-03 21:22:00,39.7,31.4,30.45,South,178,2.0,2.0,72,0.00,,,0.00,WeatherCatV1.02B3,2013-01-04 03:22:00,
2013-01-03 21:27:00,39.7,31.8,30.45,South,174,1.0,2.0,73,0.00,,,0.00,WeatherCatV1.02B3,2013-01-04 03:27:00,
2013-01-03 21:32:00,39.7,31.8,30.45,South,183,4.0,8.0,73,0.00,,,0.00,WeatherCatV1.02B3,2013-01-04 03:32:00,
2013-01-03 21:37:00,39.7,32.1,30.45,South,186,3.0,3.0,74,0.00,,,0.00,WeatherCatV1.02B3,2013-01-04 03:37:00,
2013-01-03 21:42:00,39.6,32.0,30.45,SSE,153,0.0,6.0,74,0.00,,,0.00,WeatherCatV1.02B3,2013-01-04 03:42:00,
2013-01-03 21:47:00,39.6,32.0,30.45,South,181,0.0,7.0,74,0.00,,,0.00,WeatherCatV1.02B3,2013-01-04 03:47:00,
2013-01-03 21:52:00,39.5,31.9,30.45,SSE,153,2.0,7.0,74,0.00,,,0.00,WeatherCatV1.02B3,2013-01-04 03:52:00,
2013-01-03 21:57:00,39.5,31.9,30.45,South,172,4.0,7.0,74,0.00,,,0.00,WeatherCatV1.02B3,2013-01-04 03:57:00,
2013-01-03 22:02:00,39.5,32.2,30.45,South,175,0.0,6.0,75,0.00,,,0.00,WeatherCatV1.02B3,2013-01-04 04:02:00,
2013-01-03 22:07:00,39.5,32.2,30.46,SE,138,1.0,4.0,75,0.00,,,0.00,WeatherCatV1.02B3,2013-01-04 04:07:00,
2013-01-03 22:12:00,39.5,32.2,30.46,South,178,0.0,4.0,75,0.00,,,0.00,WeatherCatV1.02B3,2013-01-04 04:12:00,
2013-01-03 22:17:00,39.4,32.1,30.45,South,182,0.0,1.0,75,0.00,,,0.00,WeatherCatV1.02B3,2013-01-04 04:17:00,
2013-01-03 22:22:00,39.3,32.4,30.45,South,176,1.0,6.0,76,0.00,,,0.00,WeatherCatV1.02B3,2013-01-04 04:22:00,
2013-01-03 22:27:00,39.3,32.4,30.45,South,190,1.0,4.0,76,0.00,,,0.00,WeatherCatV1.02B3,2013-01-04 04:27:00,
2013-01-03 22:32:00,39.3,32.4,30.45,South,183,2.0,4.0,76,0.00,,,0.00,WeatherCatV1.02B3,2013-01-04 04:32:00,
2013-01-03 22:37:00,39.3,32.4,30.46,SSE,166,2.0,7.0,76,0.00,,,0.00,WeatherCatV1.02B3,2013-01-04 04:37:00,
2013-01-03 22:42:00,39.2,32.3,30.46,SSE,166,0.0,4.0,76,0.00,,,0.00,WeatherCatV1.02B3,2013-01-04 04:42:00,
2013-01-03 22:47:00,39.2,32.3,30.46,SSW,196,0.0,3.0,76,0.00,,,0.00,WeatherCatV1.02B3,2013-01-04 04:47:00,
2013-01-03 22:52:00,39.1,31.9,30.46,SSE,167,1.0,4.0,75,0.00,,,0.00,WeatherCatV1.02B3,2013-01-04 04:52:00,
2013-01-03 22:57:00,39.0,31.8,30.45,SSE,167,0.0,4.0,75,0.00,,,0.00,WeatherCatV1.02B3,2013-01-04 04:57:00,
2013-01-03 23:00:00,38.9,31.7,30.46,South,171,1.0,6.0,75,0.00,,,0.00,WeatherCatV1.02B3,2013-01-04 05:00:00,
2013-01-03 23:01:00,38.9,31.7,30.46,South,175,2.0,7.0,75,0.00,,,0.00,WeatherCatV1.02B3,2013-01-04 05:01:00,
2013-01-03 23:03:00,38.9,31.7,30.46,South,178,0.0,5.0,75,0.00,,,0.00,WeatherCatV1.02B3,2013-01-04 05:03:00,
2013-01-03 23:08:00,38.8,31.6,30.46,South,181,0.0,3.0,75,0.00,,,0.00,WeatherCatV1.02B3,2013-01-04 05:08:00,
2013-01-03 23:13:00,38.6,31.7,30.46,South,182,1.0,2.0,76,0.00,,,0.00,WeatherCatV1.02B3,2013-01-04 05:13:00,
2013-01-03 23:18:00,38.4,31.5,30.46,South,182,0.0,3.0,76,0.00,,,0.00,WeatherCatV1.02B3,2013-01-04 05:18:00,
2013-01-03 23:23:00,38.2,31.6,30.46,South,182,0.0,2.0,77,0.00,,,0.00,WeatherCatV1.02B3,2013-01-04 05:23:00,
2013-01-03 23:28:00,38.0,31.4,30.46,SE,137,0.0,4.0,77,0.00,,,0.00,WeatherCatV1.02B3,2013-01-04 05:28:00,
2013-01-03 23:33:00,37.8,31.2,30.46,South,181,0.0,3.0,77,0.00,,,0.00,WeatherCatV1.02B3,2013-01-04 05:33:00,
2013-01-03 23:38:00,37.8,31.2,30.46,SSE,156,1.0,5.0,77,0.00,,,0.00,WeatherCatV1.02B3,2013-01-04 05:38:00,
2013-01-03 23:43:00,37.7,31.2,30.46,SSE,163,0.0,0.0,77,0.00,,,0.00,WeatherCatV1.02B3,2013-01-04 05:43:00,
2013-01-03 23:48:00,37.7,31.5,30.46,SSE,149,0.0,1.0,78,0.00,,,0.00,WeatherCatV1.02B3,2013-01-04 05:48:00,
2013-01-03 23:53:00,37.5,31.0,30.46,SE,141,2.0,7.0,77,0.00,,,0.00,WeatherCatV1.02B3,2013-01-04 05:53:00,
2013-01-03 23:58:00,37.5,31.0,30.45,SSE,163,2.0,5.0,77,0.00,,,0.00,WeatherCatV1.02B3,2013-01-04 05:58:00,